Location: Braunsdorf
(50.7357°N, 11.9136°E)
Time: 19:43:47
(UTC+00:00)

Lacrosse 5 - Pass Details

Date: 17 February 2020
Orbit: 715 x 724 km, 57.0° (Epoch: 21 March)

Event Time Altitude Azimuth Distance (km) Brightness Sun altitude
Exits shadow 04:38:35 29° 282° (WNW) 1,302 2.6 -16.9°
Maximum altitude 04:40:51 51° 222° (SW) 908 2.1 -16.6°
Drops below altitude 10° 04:45:45 10° 148° (SSE) 2,204 4.8 -15.8°
Sets 04:48:10 0° 143° (SE) 3,123 5.7 -15.4°
